Flag for U.S.A. Weather past 2 weeks in Midland, Texas, U.S.A.

36 °F


Feels Like: 32 °F
Forecast: 34 / 38 °F
Wind: 6 mph from North

Location: Midland - Midland Airpark

Current Time: Nov 28, 2015 at 2:45:42 PM

Latest Report: Nov 28, 2015 at 2:15 PM

Visibility: 10 mi

Pressure: 30.22 "Hg (27.21 "Hg at 847m altitude)

Humidity: 88%

Dew point: 33 °F

Location of MidlandLocation

Historic Weather in Midland — Graph


Midland temperature yesterday

Maximum temperature yesterday: 65 °F (at 12:35 AM)
Minimum temperature yesterday: 33 °F (at 10:15 PM)
Average temperature yesterday: 39 °F

Past Weeks' High & Low Weather Summary

High74 °F (Nov 20, 3:15 PM)100% (Nov 15, 7:35 PM)30.47 "Hg (Nov 15, 7:35 PM)
Low28 °F (Nov 22, 4:35 AM)16% (Nov 22, 2:55 PM)29.49 "Hg (Nov 16, 7:15 PM)
Average53 °F65%30.07 "Hg
* Reported Nov 13 1:15 PM — Nov 28 1:35 PM, Midland, Weather by CustomWeather, © 2015

Note: Actual official high and low records may vary slightly from our data, if they occured in-between our weather recording intervals... More about our weather records


Midland weather history for previous 24 hours

Time TempWeatherWind HumidityBarometerVisibility
1:35 PM
Sat, Nov 28
36 °FOvercast.5 mph86%30.25 "Hg10 mi
1:15 PM36 °FDrizzle. Overcast.6 mph90%30.25 "Hg10 mi
12:55 PM36 °FRain. Overcast.5 mph93%30.25 "Hg10 mi
12:35 PM36 °FOvercast.3 mph91%30.28 "Hg10 mi
12:15 PM35 °FDrizzle. Mostly cloudy.3 mph91%30.29 "Hg10 mi
11:55 AM36 °FMostly cloudy.6 mph100%30.26 "Hg10 mi
11:35 AM35 °FMore clouds than sun.5 mph100%30.27 "Hg10 mi
11:15 AM35 °FDrizzle. Cloudy.3 mph100%30.30 "Hg10 mi
10:55 AM35 °FLight rain. Cloudy.6 mph100%30.30 "Hg5 mi
10:35 AM35 °FLight rain. Cloudy.3 mph96%30.32 "Hg7 mi
10:15 AM34 °FLight rain. Cloudy.5 mph100%30.31 "Hg5 mi
9:55 AM34 °FLight rain. More clouds than sun.3 mph98%30.32 "Hg7 mi
9:35 AM34 °FLight rain. Cloudy.5 mph100%30.29 "Hg10 mi
9:15 AM34 °FLight rain. Overcast.3 mph100%30.29 "Hg7 mi
8:55 AM34 °FLight rain. Mostly cloudy.3 mph100%30.28 "Hg4 mi
8:35 AM34 °FLight rain. More clouds than sun.3 mph100%30.28 "Hg7 mi
8:15 AM34 °FLight rain. More clouds than sun.3 mph100%30.27 "Hg10 mi
7:55 AM34 °FLight rain. Overcast.5 mph100%30.27 "Hg7 mi
7:35 AM34 °FMostly cloudy.5 mph100%30.28 "Hg10 mi
7:15 AM34 °FLight rain. Mostly cloudy.No wind100%30.26 "Hg10 mi
6:55 AM34 °FLight rain. Mostly cloudy.5 mph100%30.25 "Hg7 mi
6:35 AM34 °FLight rain. Overcast.5 mph100%30.25 "Hg10 mi
6:15 AM34 °FLight rain. Overcast.5 mph100%30.25 "Hg10 mi
5:55 AM34 °FLight rain. Mostly cloudy.6 mph100%30.26 "Hg10 mi
5:35 AM34 °FLight rain. Overcast.7 mph100%30.26 "Hg7 mi
5:15 AM34 °FLight snow. Overcast.6 mph100%30.25 "Hg3 mi
4:55 AM34 °FLight rain. Overcast.3 mph100%30.28 "Hg5 mi
4:35 AM34 °FLight rain. Overcast.5 mph100%30.27 "Hg5 mi
4:15 AM34 °FLight rain. Mostly cloudy.5 mph100%30.27 "Hg7 mi
3:55 AM33 °FLight rain. Mostly cloudy.5 mph100%30.27 "Hg10 mi
3:35 AM33 °FLight rain. Mostly cloudy.6 mph100%30.25 "Hg7 mi
3:15 AM34 °FLight rain. Mostly cloudy.5 mph100%30.26 "Hg5 mi
2:55 AM33 °FLight snow. Mostly cloudy.5 mph100%30.28 "Hg2 mi
2:35 AM34 °FLight rain. Overcast.6 mph100%30.29 "Hg4 mi
2:15 AM34 °FLight rain. Overcast.3 mph100%30.29 "Hg5 mi
1:55 AM34 °FLight rain. Mostly cloudy.3 mph100%30.28 "Hg4 mi
12:35 AM34 °FLight rain. Overcast.6 mph100%30.28 "Hg10 mi
12:15 AM34 °FLight rain. Overcast.6 mph100%30.29 "Hg5 mi
11:55 PM
Fri, Nov 27
34 °FLight rain. Mostly cloudy.8 mph100%30.30 "Hg4 mi
11:35 PM34 °FLight rain. Mostly cloudy.5 mph100%30.31 "Hg4 mi
10:55 PM34 °FLight rain. Mostly cloudy.6 mph100%30.30 "Hg10 mi
10:35 PM34 °FLight rain. Mostly cloudy.8 mph100%30.27 "Hg7 mi
10:15 PM33 °FLight rain. Overcast.13 mph100%30.30 "Hg7 mi
9:55 PM34 °FLight snow. Low clouds.9 mph100%30.32 "Hg3 mi
9:15 PM34 °FDrizzle. Mostly cloudy.8 mph100%30.29 "Hg7 mi
8:55 PM34 °FRain. Overcast.9 mph100%30.28 "Hg10 mi
8:15 PM34 °FLight rain. Overcast.10 mph100%30.29 "Hg4 mi
7:55 PM34 °FDrizzle. Overcast.12 mph100%30.27 "Hg7 mi
7:35 PM34 °FLight rain. Mostly cloudy.9 mph100%30.28 "Hg10 mi
7:15 PM35 °FLight rain. Overcast.8 mph100%30.32 "Hg7 mi
5:55 PM35 °FDrizzle. Overcast.8 mph100%30.28 "Hg10 mi
4:55 PM36 °FRain. Low clouds.12 mph100%30.27 "Hg3 mi
4:15 PM36 °FOvercast.8 mph100%30.28 "Hg10 mi
3:55 PM36 °FOvercast.8 mph100%30.28 "Hg10 mi
3:15 PM36 °FCloudy.12 mph100%30.26 "Hg10 mi
2:55 PM35 °FRain. Cloudy.12 mph100%30.26 "Hg10 mi
2:35 PM36 °FRain. Mostly cloudy.15 mph100%30.24 "Hg3 mi
2:15 PM35 °FDrizzle. Mostly cloudy.14 mph100%30.26 "Hg10 mi
Weather by CustomWeather, © 2015

See weather overviewHow to use our weather pages